EW8829 Weather Reports


time (UTC)temp
F
wind
direction
speed
knots
gust
knots
rain 1hr
in
rain 24hr
in
rain mn
in
humidity
%
barometer
mb
20260503213354 57 200 1.7 5.2 0.00 0.00 0.00 40 1008.7
20260503212850 57 299 2.6 5.2 0.00 0.00 0.00 39 1008.5
20260503212348 56 249 2.6 4.3 0.00 0.00 0.00 40 1008.5
20260503211845 57 265 7.0 13.0 0.00 0.00 0.00 40 1008.5
20260503211342 56 115 2.6 4.3 0.00 0.00 0.00 43 1008.6
20260503210837 56 278 5.2 5.2 0.00 0.00 0.00 42 1008.5
20260503210334 56 331 2.6 9.6 0.00 0.00 0.00 41 1008.4
20260503205829 56 136 3.5 5.2 0.00 0.00 0.00 45 1008.5
20260503205326 55 325 0.0 3.5 0.00 0.00 0.00 44 1008.8
20260503204823 54 256 6.1 7.0 0.00 0.00 0.00 45 1008.8
20260503204320 53 70 7.0 12.2 0.00 0.00 0.00 46 1008.9
20260503203817 53 14 4.3 14.8 0.00 0.00 0.00 46 1008.9
20260503203315 54 238 3.5 9.6 0.00 0.00 0.00 42 1008.8
20260503202811 54 299 4.3 15.6 0.00 0.00 0.00 41 1008.6
20260503202310 54 14 0.9 6.1 0.00 0.00 0.00 41 1008.8
20260503201807 54 67 0.0 7.8 0.00 0.00 0.00 44 1008.7
20260503201304 55 263 10.4 11.3 0.00 0.00 0.00 40 1008.8
20260503200802 55 9 1.7 4.3 0.00 0.00 0.00 40 1008.7
20260503200257 55 344 2.6 4.3 0.00 0.00 0.00 38 1008.6
20260503195755 55 314 3.5 6.1 0.00 0.00 0.00 38 1008.5
20260503195251 56 350 2.6 3.5 0.00 0.00 0.00 38 1008.5
20260503194749 58 281 3.5 4.3 0.00 0.00 0.00 35 1008.6
20260503194244 57 314 2.6 5.2 0.00 0.00 0.00 37 1008.8
20260503193741 56 255 5.2 8.7 0.00 0.00 0.00 34 1008.9
20260503193237 55 281 5.2 13.9 0.00 0.00 0.00 36 1008.9
20260503192733 55 259 9.6 10.4 0.00 0.00 0.00 36 1008.8
20260503192228 55 11 3.5 4.3 0.00 0.00 0.00 37 1008.9
20260503191725 56 142 1.7 11.3 0.00 0.00 0.00 36 1008.8
20260503191222 55 332 5.2 9.6 0.00 0.00 0.00 35 1008.9
20260503190719 55 17 1.7 6.1 0.00 0.00 0.00 36 1008.8
20260503190215 55 83 3.5 6.1 0.00 0.00 0.00 35 1008.9
20260503185713 57 227 4.3 10.4 0.00 0.00 0.00 33 1009.0
20260503185208 56 344 1.7 4.3 0.00 0.00 0.00 37 1009.2
20260503184703 57 200 3.5 5.2 0.00 0.00 0.00 39 1009.1
20260503184200 55 24 4.3 8.7 0.00 0.00 0.00 37 1009.3
20260503183656 57 40 2.6 4.3 0.00 0.00 0.00 37 1009.4
20260503183153 56 191 5.2 13.9 0.00 0.00 0.00 35 1008.9
20260503182651 57 28 2.6 4.3 0.00 0.00 0.00 32 1009.3
20260503182150 56 301 4.3 7.0 0.00 0.00 0.00 37 1009.3
20260503181646 54 18 2.6 5.2 0.00 0.00 0.00 40 1009.7
20260503181143 56 317 4.3 10.4 0.00 0.00 0.00 33 1009.4
20260503180640 56 72 3.5 8.7 0.00 0.00 0.00 40 1009.4
20260503180138 55 55 2.6 10.4 0.00 0.00 0.00 37 1009.6
20260503175635 53 74 3.5 5.2 0.00 0.00 0.00 37 1009.6
20260503175132 53 313 4.3 7.8 0.00 0.00 0.00 35 1009.8
20260503174628 55 295 2.6 11.3 0.00 0.00 0.00 39 1010.0
20260503174126 54 25 5.2 7.0 0.00 0.00 0.00 41 1009.9
20260503173620 53 69 5.2 6.1 0.00 0.00 0.00 39 1010.2
20260503173117 52 118 5.2 9.6 0.00 0.00 0.00 37 1010.2
20260503172614 51 10 4.3 7.8 0.00 0.00 0.00 39 1010.2
20260503172112 54 7 2.6 4.3 0.00 0.00 0.00 38 1010.3
20260503171608 54 309 2.6 2.6 0.00 0.00 0.00 42 1010.4
20260503171105 52 92 3.5 5.2 0.00 0.00 0.00 39 1010.4
20260503170601 52 293 7.8 14.8 0.00 0.00 0.00 40 1010.3
20260503150954 51 84 2.6 7.8 0.00 0.00 0.00 42 1011.6
20260503150450 48 63 5.2 10.4 0.00 0.00 0.00 40 1011.6
20260503131343 45 345 1.7 7.8 0.00 0.00 0.00 49 1011.8
20260503130841 45 18 2.6 5.2 0.00 0.00 0.00 51 1012.0
20260503130338 46 340 4.3 10.4 0.00 0.00 0.00 50 1012.1
20260503110732 37 24 1.7 2.6 0.00 0.00 0.00 86 1011.8
20260503110229 37 54 1.7 2.6 0.00 0.00 0.00 84 1011.8
20260503100155 35 55 0.9 1.7 0.00 0.00 0.00 94 1011.2
20260503090115 35 64 0.9 1.7 0.00 0.00 0.00 93 1010.8
20260503081550 35 68 0.9 1.7 0.00 0.00 0.00 90 1010.7
20260503081048 35 73 1.7 1.7 0.00 0.00 0.00 90 1010.7
20260503080544 35 65 0.9 1.7 0.00 0.00 0.00 89 1010.6
20260503072517 35 68 0.9 1.7 0.00 0.00 0.00 91 1010.7
20260503072014 35 77 1.7 1.7 0.00 0.00 0.00 90 1010.6
20260503071511 36 62 1.7 1.7 0.00 0.00 0.00 90 1010.7
20260503071008 36 78 1.7 1.7 0.00 0.00 0.00 88 1010.7
20260503070505 36 62 0.0 1.7 0.00 0.00 0.00 88 1010.7
20260503054928 35 63 1.7 1.7 0.00 0.00 0.00 87 1010.9
20260503054424 36 60 1.7 1.7 0.00 0.00 0.00 87 1011.3
20260503053922 36 75 1.7 1.7 0.00 0.00 0.00 87 1011.3
20260503053420 36 73 1.7 1.7 0.00 0.00 0.00 87 1011.4
20260503052916 36 72 1.7 1.7 0.00 0.00 0.00 86 1011.3
20260503052414 36 73 1.7 2.6 0.00 0.00 0.00 86 1011.6
20260503051910 37 121 0.0 0.9 0.00 0.00 0.00 86 1011.6
20260503051406 36 57 1.7 1.7 0.00 0.00 0.00 87 1011.5
20260503050903 37 77 1.7 1.7 0.00 0.00 0.00 86 1011.5
20260503050359 37 31 0.9 1.7 0.00 0.00 0.00 85 1011.7
20260503045857 37 48 1.7 2.6 0.00 0.00 0.00 85 1011.8
20260503045354 37 56 1.7 1.7 0.00 0.00 0.00 85 1011.8
20260503044851 37 36 1.7 1.7 0.00 0.00 0.00 84 1012.0
20260503044348 37 58 1.7 1.7 0.00 0.00 0.00 84 1011.9
20260503043845 37 86 1.7 1.7 0.00 0.00 0.00 84 1011.8
20260503043342 37 85 1.7 2.6 0.00 0.00 0.00 83 1011.9
20260503042838 37 43 0.9 1.7 0.00 0.00 0.00 83 1012.0
20260503042335 37 31 0.9 1.7 0.00 0.00 0.00 83 1012.2
20260503041830 37 63 1.7 1.7 0.00 0.00 0.00 82 1012.2
20260503041328 37 62 1.7 2.6 0.00 0.00 0.00 82 1012.1
20260503040826 37 50 1.7 2.6 0.00 0.00 0.00 81 1012.1
20260503040323 37 62 0.9 1.7 0.00 0.00 0.00 80 1012.1
20260503035820 38 34 0.9 1.7 0.00 0.00 0.00 80 1012.0
20260503035317 37 315 0.0 1.7 0.00 0.00 0.00 80 1012.1
20260503034814 38 50 0.9 0.9 0.00 0.00 0.00 79 1012.2
20260503034311 38 33 0.0 1.7 0.00 0.00 0.00 80 1012.0
20260503033809 38 84 1.7 1.7 0.00 0.00 0.00 78 1012.0
20260503033306 38 49 0.0 1.7 0.00 0.00 0.00 79 1012.0
20260503032804 38 61 1.7 1.7 0.00 0.00 0.00 78 1012.2
20260503032304 38 40 0.9 1.7 0.00 0.00 0.00 78 1012.0
20260503031759 38 53 0.9 3.5 0.00 0.00 0.00 76 1012.2
20260503031257 38 30 0.9 1.7 0.00 0.00 0.00 77 1012.0
20260503030753 39 59 1.7 2.6 0.00 0.00 0.00 75 1012.3
20260503030250 39 33 1.7 1.7 0.00 0.00 0.00 74 1012.1
20260503025747 39 22 0.0 2.6 0.00 0.00 0.00 75 1012.1
20260503025244 39 23 1.7 1.7 0.00 0.00 0.00 74 1012.3
20260503024741 39 10 0.9 1.7 0.00 0.00 0.00 75 1011.9
20260503024238 39 357 0.0 0.9 0.00 0.00 0.00 75 1012.0
20260503023735 39 15 0.9 1.7 0.00 0.00 0.00 75 1012.2
20260503023232 40 45 0.9 2.6 0.00 0.00 0.00 72 1012.0
20260503022728 40 38 1.7 2.6 0.00 0.00 0.00 72 1012.2
20260503022228 40 35 2.6 2.6 0.00 0.00 0.00 69 1012.1
20260503021725 40 51 2.6 2.6 0.00 0.00 0.00 69 1012.2
20260503021221 40 35 2.6 2.6 0.00 0.00 0.00 68 1012.2
20260503020719 40 44 1.7 2.6 0.00 0.00 0.00 70 1012.4
20260503020216 40 89 0.9 2.6 0.00 0.00 0.00 70 1012.4
20260503015713 41 36 2.6 2.6 0.00 0.00 0.00 69 1012.2
20260503015210 41 33 1.7 3.5 0.00 0.00 0.00 68 1012.3
20260503014705 41 18 0.9 1.7 0.00 0.00 0.00 72 1012.4
20260503014203 41 49 0.0 1.7 0.00 0.00 0.00 72 1012.4
20260503013700 41 17 3.5 3.5 0.00 0.00 0.00 68 1012.2
20260503013158 41 44 0.9 1.7 0.00 0.00 0.00 70 1012.1
20260503012655 41 45 1.7 2.6 0.00 0.00 0.00 70 1012.1
20260503012152 41 32 2.6 2.6 0.00 0.00 0.00 68 1012.0
20260503011648 42 28 1.7 2.6 0.00 0.00 0.00 67 1011.9
20260503011145 42 31 2.6 3.5 0.00 0.00 0.00 65 1012.1
20260503010641 42 31 2.6 3.5 0.00 0.00 0.00 65 1012.0
20260503010139 42 36 1.7 2.6 0.00 0.00 0.00 65 1012.0
20260503005636 42 33 2.6 2.6 0.00 0.00 0.00 65 1011.8
20260503005133 42 28 0.9 3.5 0.00 0.00 0.00 64 1012.1
20260503004629 42 317 0.9 1.7 0.00 0.00 0.00 65 1011.7
20260503004128 42 11 0.0 3.5 0.00 0.00 0.00 63 1011.6
20260503003624 42 31 2.6 2.6 0.00 0.00 0.00 61 1011.6
20260503003121 42 81 1.7 1.7 0.00 0.00 0.00 61 1011.7
20260503002618 42 43 1.7 2.6 0.00 0.00 0.00 62 1011.6
20260503002115 43 29 2.6 2.6 0.00 0.00 0.00 61 1011.9
20260503001611 43 42 2.6 3.5 0.00 0.00 0.00 59 1011.9
20260503001109 43 45 0.9 3.5 0.00 0.00 0.00 60 1011.7
20260503000606 43 39 1.7 2.6 0.00 0.00 0.00 58 1011.6
20260503000103 43 40 2.6 3.5 0.00 0.00 0.00 58 1011.7
20260502235559 44 355 2.6 3.5 0.00 0.00 0.00 58 1011.6
20260502235057 44 38 2.6 3.5 0.00 0.00 0.00 55 1011.5
20260502234553 44 11 3.5 5.2 0.00 0.00 0.00 55 1011.5
20260502234051 44 28 2.6 2.6 0.00 0.00 0.00 55 1011.4
20260502233551 44 32 2.6 2.6 0.00 0.00 0.00 56 1011.5
20260502233049 45 23 3.5 3.5 0.00 0.00 0.00 55 1011.2
20260502232544 45 54 2.6 4.3 0.00 0.00 0.00 56 1011.3
20260502232042 45 59 2.6 2.6 0.00 0.00 0.00 55 1011.2
20260502231539 45 31 1.7 3.5 0.00 0.00 0.00 53 1011.1
20260502231037 45 12 3.5 3.5 0.00 0.00 0.00 55 1011.2
20260502230535 45 20 3.5 3.5 0.00 0.00 0.00 54 1011.1
20260502230033 45 52 2.6 3.5 0.00 0.00 0.00 56 1011.2
20260502225528 45 32 1.7 2.6 0.00 0.00 0.00 56 1011.2
20260502225026 45 20 1.7 2.6 0.00 0.00 0.00 57 1010.9
20260502224522 45 29 0.9 1.7 0.00 0.00 0.00 62 1011.2
20260502224019 45 337 0.9 1.7 0.00 0.00 0.00 63 1010.7
20260502223517 45 79 1.7 2.6 0.00 0.00 0.00 60 1010.9
20260502223015 45 89 4.3 4.3 0.00 0.00 0.00 60 1010.7
20260502222512 45 67 1.7 1.7 0.00 0.00 0.00 59 1010.8
20260502222008 45 87 2.6 2.6 0.00 0.00 0.00 59 1011.2
20260502221503 45 339 0.0 1.7 0.00 0.00 0.00 57 1011.2
20260502221001 45 79 0.9 1.7 0.00 0.00 0.00 59 1011.3
20260502220456 45 82 1.7 1.7 0.00 0.00 0.00 60 1010.9
20260502215953 45 78 1.7 2.6 0.00 0.00 0.00 62 1011.1
20260502215451 45 52 1.7 1.7 0.00 0.00 0.00 62 1011.2
20260502214948 45 44 1.7 2.6 0.00 0.00 0.00 61 1010.9
20260502214444 44 27 1.7 3.5 0.00 0.00 0.00 63 1010.9
20260502213942 44 71 1.7 2.6 0.00 0.00 0.00 67 1010.9